Volver al catálogo

STARLINK-3904

ActivoComunicacionesVLEO
NORAD 52464·PAYLOAD·🇺🇸 United States

Lanzado May 6, 2022 desde Cape Canaveral Space Force Station

Loading…

Próximos Pases (próximas 24 horas)

TLE

ActualizadoSource: CelesTrak SupGP

Época: Sep 14, 2026, 21:43 UTC

1 52464C 22049P   26257.90534722  .00033948  00000+0  97137-3 0  2575
2 52464  53.1573 279.7585 0001234  92.5403 287.1651 15.35378745    12

Sigue STARLINK-3904 en tiempo real con AllMySat

Download on the App Store